O/OREOS (USA 219)

Last updated on Mon Sep 21 2026 00:03:14 GMT+0000 (Coordinated Universal Time)

1 37224U 10062C 26263.61727181 .00001392 00000+0 13603-3 0 9999 2 37224 71.9689 224.1122 0016422 246.7959 113.1483 14.94052794130898
UTC large
Height (km)
Speed (km/s)
/
Latitude / Longitude
Inclination (degrees)
Orbital Period (minutes)
Azimuth
Elevation
Range (km)
Doppler Factor

Next 0 passes for location: London (51.5072 / 0.1276)

No passes found over London.
O/OREOS (USA 219)